This demonstration page uses our WeatherBlox Daily Observations layout. Learn more.

Left ArrowRight Arrow

Hourly Observations for October 23, 2016

Temp ( °F °C ) Dew Point ( °F °C ) Humidity (%) Winds ( mph kmh ) Pressure ( in mb ) Visibility ( mi km ) Precip ( " mm )
12:15 am 00:15 Clear 50 10 34 1 54 54 WNW 5 7 29.94 1014 10 16 N/A
12:35 am 00:35 Clear 48 9 34 1 58 58 WNW 7 11 29.94 1014 10 16 N/A
12:55 am 00:55 Clear 48 9 34 1 58 58 W 7 11 29.94 1014 10 16 N/A
1:15 am 01:15 Clear 48 9 34 1 58 58 WNW 7 11 29.94 1014 10 16 N/A
1:35 am 01:35 Clear 46 8 36 2 66 66 WNW 5 7 29.97 1015 10 16 N/A
1:55 am 01:55 Clear 46 8 36 2 66 66 W 8 13 29.97 1015 10 16 N/A
2:15 am 02:15 Partly Cloudy 46 8 36 2 66 66 WNW 9 15 29.97 1015 10 16 N/A
2:35 am 02:35 Partly Cloudy 46 8 36 2 66 66 WNW 6 9 29.97 1015 10 16 N/A
2:55 am 02:55 Clear 46 8 36 2 66 66 WNW 7 11 30.00 1016 10 16 N/A
3:15 am 03:15 Clear 46 8 36 2 66 66 N N/A 30.00 1016 10 16 N/A
3:35 am 03:35 Clear 46 8 36 2 66 66 WNW 6 9 30.00 1016 10 16 N/A
3:55 am 03:55 Clear 46 8 36 2 66 66 W 5 7 30.00 1016 10 16 N/A
4:15 am 04:15 Clear 46 8 36 2 66 66 WSW 3 6 30.00 1016 10 16 N/A
4:35 am 04:35 Clear 46 8 37 3 71 71 W 8 13 30.03 1017 10 16 N/A
4:55 am 04:55 Clear 46 8 37 3 71 71 W 7 11 30.00 1016 10 16 N/A
5:15 am 05:15 Clear 48 9 37 3 66 66 W 9 15 30.00 1016 10 16 N/A
5:35 am 05:35 Clear 50 10 37 3 62 62 W 8 13 30.00 1016 10 16 N/A
5:55 am 05:55 Clear 50 10 39 4 67 67 W 7 11 30.00 1016 10 16 N/A
6:15 am 06:15 Clear 50 10 39 4 67 67 W 17 28 30.00 1016 10 16 N/A
6:35 am 06:35 Clear 50 10 41 5 71 71 W 15 24 30.00 1016 10 16 N/A
6:55 am 06:55 Partly Cloudy 50 10 41 5 71 71 W 8 13 30.00 1016 10 16 N/A
7:15 am 07:15 Partly Cloudy 50 10 41 5 71 71 W 7 11 30.00 1016 10 16 N/A
7:35 am 07:35 Sunny 50 10 41 5 71 71 W 8 13 30.03 1017 10 16 N/A
7:55 am 07:55 Sunny 48 9 41 5 76 76 SW 6 9 30.06 1018 10 16 N/A
8:15 am 08:15 Sunny 48 9 41 5 76 76 SW 5 7 30.06 1018 10 16 N/A
8:35 am 08:35 Sunny 50 10 41 5 71 71 SW 3 6 30.03 1017 10 16 N/A
8:55 am 08:55 Sunny 52 11 41 5 67 67 SSW 6 9 30.03 1017 10 16 N/A
9:15 am 09:15 Sunny 54 12 41 5 63 63 SSW 7 11 30.06 1018 10 16 N/A
9:35 am 09:35 Sunny 55 13 43 6 63 63 WSW 7 11 30.03 1017 10 16 N/A
9:55 am 09:55 Partly Cloudy 55 13 43 6 63 63 WSW 9 15 30.06 1018 10 16 N/A
10:15 am 10:15 Mostly Cloudy 57 14 43 6 59 59 W 8 13 30.06 1018 10 16 N/A
10:35 am 10:35 Mostly Cloudy 57 14 43 6 59 59 W 7 11 30.06 1018 10 16 N/A
10:55 am 10:55 Cloudy 59 15 43 6 55 55 WNW 14 22 30.03 1017 10 16 N/A
11:15 am 11:15 Cloudy 59 15 43 6 55 55 W 10 17 30.03 1017 10 16 N/A
11:35 am 11:35 Mostly Cloudy 59 15 45 7 59 59 SSW 5 7 30.03 1017 10 16 N/A
11:55 am 11:55 Cloudy 59 15 45 7 59 59 S 8 13 30.03 1017 10 16 N/A
12:15 pm 12:15 Cloudy 59 15 45 7 59 59 S 10 17 30.03 1017 10 16 N/A
12:35 pm 12:35 Cloudy 61 16 45 7 55 55 S 9 15 30.03 1017 10 16 N/A
12:55 pm 12:55 Cloudy 61 16 45 7 55 55 SSW 7 11 30.03 1017 10 16 N/A
1:15 pm 13:15 Cloudy 61 16 45 7 55 55 S 13 20 30.00 1016 10 16 N/A
1:35 pm 13:35 Cloudy 63 17 45 7 52 52 SSW 10 17 30.00 1016 10 16 N/A
1:55 pm 13:55 Mostly Cloudy 66 19 46 8 49 49 WNW 7 11 30.00 1016 10 16 N/A
2:15 pm 14:15 Partly Cloudy 68 20 46 8 46 46 WNW 20 31 30.00 1016 10 16 N/A
2:35 pm 14:35 Partly Cloudy 70 21 45 7 40 40 WNW 17 28 29.97 1015 10 16 N/A
2:55 pm 14:55 Sunny 70 21 45 7 40 40 WNW 18 30 29.97 1015 10 16 N/A
3:15 pm 15:15 Sunny 70 21 45 7 40 40 WNW 16 26 29.97 1015 10 16 N/A
3:35 pm 15:35 Sunny 70 21 45 7 40 40 W 14 22 29.97 1015 10 16 N/A
3:55 pm 15:55 Sunny 70 21 45 7 40 40 W 16 26 29.97 1015 10 16 N/A
4:15 pm 16:15 Sunny 70 21 45 7 40 40 W 12 19 29.97 1015 10 16 N/A
4:35 pm 16:35 Sunny 70 21 43 6 38 38 W 17 28 29.97 1015 10 16 N/A
4:55 pm 16:55 Sunny 70 21 45 7 40 40 W 10 17 29.97 1015 10 16 N/A
5:15 pm 17:15 Sunny 70 21 45 7 40 40 W 13 20 29.97 1015 10 16 N/A
5:35 pm 17:35 Sunny 70 21 45 7 40 40 WSW 5 7 29.97 1015 10 16 N/A
5:55 pm 17:55 Sunny 68 20 45 7 43 43 W 3 6 29.97 1015 10 16 N/A
6:15 pm 18:15 Sunny 68 20 43 6 40 40 WSW 5 7 29.97 1015 10 16 N/A
6:35 pm 18:35 Clear 64 18 43 6 46 46 SSW 3 6 29.97 1015 10 16 N/A
6:55 pm 18:55 Clear 64 18 45 7 49 49 SSW 3 6 29.97 1015 10 16 N/A
7:15 pm 19:15 Clear 61 16 45 7 55 55 SSW 5 7 29.97 1015 10 16 N/A
7:35 pm 19:35 Clear 61 16 45 7 55 55 S 8 13 29.97 1015 10 16 N/A
7:55 pm 19:55 Clear 59 15 45 7 59 59 SSW 9 15 29.97 1015 10 16 N/A
8:15 pm 20:15 Clear 59 15 46 8 63 63 SSW 8 13 29.97 1015 10 16 N/A
8:35 pm 20:35 Clear 55 13 46 8 72 72 S 8 13 29.97 1015 10 16 N/A
8:55 pm 20:55 Clear 54 12 46 8 77 77 SW 6 9 29.97 1015 10 16 N/A
9:15 pm 21:15 Clear 52 11 46 8 82 82 SW 3 6 29.97 1015 10 16 N/A
9:35 pm 21:35 Clear 54 12 46 8 77 77 SSW 5 7 29.97 1015 10 16 N/A
9:55 pm 21:55 Clear 52 11 46 8 82 82 SSW 6 9 29.97 1015 10 16 N/A
10:15 pm 22:15 Clear 54 12 46 8 77 77 SSW 7 11 29.94 1014 10 16 N/A
10:35 pm 22:35 Clear 50 10 46 8 88 88 SSW 5 7 29.94 1014 10 16 N/A
10:55 pm 22:55 Clear 54 12 46 8 77 77 SSW 6 9 29.94 1014 10 16 N/A
11:15 pm 23:15 Clear 52 11 46 8 82 82 SW 5 7 29.94 1014 10 16 N/A
11:35 pm 23:35 Clear 50 10 46 8 88 88 SSW 5 7 29.94 1014 10 16 N/A
11:55 pm 23:55 Clear 52 11 46 8 82 82 SW 5 7 29.94 1014 10 16 N/A

Powered by AerisWeather